Location: Marsån
(66.4167°N, 22.2833°E)
Time: 12:02:37
(UTC+00:00)

Cosmos 2082 Rocket - Pass Details

Date: 24 February 2024
Orbit: 831 x 855 km, 71.0° (Epoch: 15 April)

Event Time Altitude Azimuth Distance (km) Brightness Sun altitude
Rises 20:11:38 0° 245° (WSW) 3,389 5.6 -27.4°
Reaches altitude 10° 20:14:04 10° 247° (WSW) 2,459 4.8 -27.6°
Maximum altitude 20:19:43 73° 333° (NNW) 888 2.3 -28.0°
Enters shadow 20:22:11 35° 50° (NE) 1,343 3.2 -28.1°
